Time,TemperatureF,DewpointF,PressureIn,WindDirection,WindDirectionDegrees,WindSpeedMPH,WindSpeedGustMPH,Humidity,HourlyPrecipIn,Conditions,Clouds,dailyrainin,SoftwareType,DateUTC
2013-07-20 00:01:00,71.3,69.1,30.06,SW,230,0.0,3.2,93,0.00,,CLR,0.00,VWS V14.00,2013-07-20 04:01:00,
2013-07-20 00:02:00,71.3,69.1,30.06,SW,230,0.0,0.0,93,0.00,,CLR,0.00,VWS V14.00,2013-07-20 04:02:00,
2013-07-20 00:07:00,71.1,69.0,30.06,WSW,254,0.0,0.0,93,0.00,,CLR,0.00,VWS V14.00,2013-07-20 04:07:00,
2013-07-20 00:12:00,71.1,69.0,30.06,WSW,254,2.5,2.7,93,0.00,,CLR,0.00,VWS V14.00,2013-07-20 04:12:00,
2013-07-20 00:17:00,71.1,68.6,30.06,SSE,162,0.0,2.7,92,0.00,,CLR,0.00,VWS V14.00,2013-07-20 04:17:00,
2013-07-20 00:22:00,71.1,68.3,30.06,SSE,162,2.5,2.7,91,0.00,,CLR,0.00,VWS V14.00,2013-07-20 04:22:00,
2013-07-20 00:27:00,71.1,68.3,30.06,SSW,193,2.5,2.7,91,0.00,,CLR,0.00,VWS V14.00,2013-07-20 04:27:00,
2013-07-20 00:32:00,71.1,68.3,30.06,SSW,208,0.0,0.0,91,0.00,,CLR,0.00,VWS V14.00,2013-07-20 04:32:00,
2013-07-20 00:37:00,70.9,68.5,30.06,West,267,0.0,0.0,92,0.00,,CLR,0.00,VWS V14.00,2013-07-20 04:37:00,
2013-07-20 00:42:00,70.9,68.8,30.06,West,267,0.0,0.0,93,0.00,,CLR,0.00,VWS V14.00,2013-07-20 04:42:00,
2013-07-20 00:47:00,70.7,68.9,30.03,SE,131,2.5,2.7,94,0.00,,CLR,0.00,VWS V14.00,2013-07-20 04:47:00,
2013-07-20 00:52:00,70.7,68.9,30.03,SW,227,2.5,2.7,94,0.00,,CLR,0.00,VWS V14.00,2013-07-20 04:52:00,
2013-07-20 00:58:00,70.7,69.2,30.03,SW,227,0.0,0.0,95,0.00,,CLR,0.00,VWS V14.00,2013-07-20 04:58:00,
2013-07-20 01:03:00,70.7,69.2,30.06,SW,227,0.0,0.0,95,0.00,,CLR,0.00,VWS V14.00,2013-07-20 05:03:00,
2013-07-20 01:08:00,70.5,69.0,30.06,SW,227,2.5,2.7,95,0.00,,CLR,0.00,VWS V14.00,2013-07-20 05:08:00,
2013-07-20 01:13:00,70.5,68.7,30.06,SW,227,0.0,0.0,94,0.00,,CLR,0.00,VWS V14.00,2013-07-20 05:13:00,
2013-07-20 01:18:00,70.3,68.8,30.06,SW,227,0.0,0.0,95,0.00,,CLR,0.00,VWS V14.00,2013-07-20 05:18:00,
2013-07-20 01:23:00,70.3,69.2,30.06,SW,227,0.0,0.0,96,0.00,,CLR,0.00,VWS V14.00,2013-07-20 05:23:00,
2013-07-20 01:28:00,70.3,69.2,30.06,SW,227,0.0,2.7,96,0.00,,CLR,0.00,VWS V14.00,2013-07-20 05:28:00,
2013-07-20 01:33:00,70.3,69.2,30.06,SW,227,0.0,0.0,96,0.00,,CLR,0.00,VWS V14.00,2013-07-20 05:33:00,
2013-07-20 01:38:00,70.3,69.2,30.06,SW,227,0.0,0.0,96,0.00,,CLR,0.00,VWS V14.00,2013-07-20 05:38:00,
2013-07-20 01:43:00,70.3,69.2,30.06,SW,227,0.0,0.0,96,0.00,,CLR,0.00,VWS V14.00,2013-07-20 05:43:00,
2013-07-20 01:48:00,70.0,69.1,30.06,SW,227,0.0,0.0,97,0.00,,CLR,0.00,VWS V14.00,2013-07-20 05:48:00,
2013-07-20 01:53:00,70.0,69.1,30.06,SW,227,0.0,0.0,97,0.00,,CLR,0.00,VWS V14.00,2013-07-20 05:53:00,
2013-07-20 01:59:00,70.0,68.8,30.06,SW,227,0.0,0.0,96,0.00,,CLR,0.00,VWS V14.00,2013-07-20 05:59:00,
2013-07-20 02:04:00,69.8,68.6,30.06,SW,227,0.0,0.0,96,0.00,,CLR,0.00,VWS V14.00,2013-07-20 06:04:00,
2013-07-20 02:09:00,69.8,68.6,30.06,SW,227,0.0,0.0,96,0.00,,CLR,0.00,VWS V14.00,2013-07-20 06:09:00,
2013-07-20 02:14:00,69.8,68.3,30.06,SW,227,0.0,0.0,95,0.00,,CLR,0.00,VWS V14.00,2013-07-20 06:14:00,
2013-07-20 02:19:00,69.8,68.6,30.06,SW,227,0.0,0.0,96,0.00,,CLR,0.00,VWS V14.00,2013-07-20 06:19:00,
2013-07-20 02:24:00,69.8,68.6,30.06,SW,227,0.0,0.0,96,0.00,,CLR,0.00,VWS V14.00,2013-07-20 06:24:00,
2013-07-20 02:29:00,69.6,68.1,30.06,SW,227,0.0,0.0,95,0.00,,CLR,0.00,VWS V14.00,2013-07-20 06:29:00,
2013-07-20 02:34:00,69.6,68.1,30.06,SW,227,0.0,0.0,95,0.00,,CLR,0.00,VWS V14.00,2013-07-20 06:34:00,
2013-07-20 02:39:00,69.6,67.8,30.06,SW,227,0.0,0.0,94,0.00,,CLR,0.00,VWS V14.00,2013-07-20 06:39:00,
2013-07-20 02:44:00,69.4,67.9,30.06,SW,227,0.0,0.0,95,0.00,,CLR,0.00,VWS V14.00,2013-07-20 06:44:00,
2013-07-20 02:49:00,69.4,67.9,30.06,SW,227,0.0,0.0,95,0.00,,CLR,0.00,VWS V14.00,2013-07-20 06:49:00,
2013-07-20 02:54:00,69.4,67.9,30.06,SW,227,0.0,0.0,95,0.00,,CLR,0.00,VWS V14.00,2013-07-20 06:54:00,
2013-07-20 03:00:00,69.4,67.9,30.06,SW,227,0.0,0.0,95,0.00,,CLR,0.00,VWS V14.00,2013-07-20 07:00:00,
2013-07-20 03:05:00,69.2,68.0,30.06,SW,227,0.0,0.0,96,0.00,,CLR,0.00,VWS V14.00,2013-07-20 07:05:00,
2013-07-20 03:10:00,69.2,68.0,30.06,SW,227,0.0,0.0,96,0.00,,CLR,0.00,VWS V14.00,2013-07-20 07:10:00,
2013-07-20 03:15:00,69.2,68.0,30.06,SW,227,0.0,0.0,96,0.00,,CLR,0.00,VWS V14.00,2013-07-20 07:15:00,
2013-07-20 03:20:00,69.2,68.0,30.06,SW,227,0.0,0.0,96,0.00,,CLR,0.00,VWS V14.00,2013-07-20 07:20:00,
2013-07-20 03:25:00,69.2,68.0,30.06,SW,227,0.0,0.0,96,0.00,,CLR,0.00,VWS V14.00,2013-07-20 07:25:00,
2013-07-20 03:30:00,69.2,68.0,30.06,SW,227,0.0,0.0,96,0.00,,CLR,0.00,VWS V14.00,2013-07-20 07:30:00,
2013-07-20 03:35:00,69.2,68.0,30.06,SW,227,0.0,0.0,96,0.00,,CLR,0.00,VWS V14.00,2013-07-20 07:35:00,
2013-07-20 03:40:00,69.0,67.9,30.06,SW,227,0.0,0.0,96,0.00,,CLR,0.00,VWS V14.00,2013-07-20 07:40:00,
2013-07-20 03:45:00,68.8,68.0,30.06,SW,227,0.0,0.0,97,0.00,,CLR,0.00,VWS V14.00,2013-07-20 07:45:00,
2013-07-20 03:50:00,68.7,67.8,30.06,SW,227,0.0,0.0,97,0.00,,CLR,0.00,VWS V14.00,2013-07-20 07:50:00,
2013-07-20 03:55:00,68.7,68.1,30.06,SW,227,0.0,0.0,98,0.00,,CLR,0.00,VWS V14.00,2013-07-20 07:55:00,
2013-07-20 04:00:00,68.7,68.1,30.06,SW,227,0.0,0.0,98,0.00,,CLR,0.00,VWS V14.00,2013-07-20 08:00:00,
2013-07-20 04:06:00,68.7,68.1,30.06,SW,227,0.0,0.0,98,0.00,,CLR,0.00,VWS V14.00,2013-07-20 08:06:00,
2013-07-20 04:11:00,68.5,67.9,30.06,SW,227,0.0,0.0,98,0.00,,CLR,0.00,VWS V14.00,2013-07-20 08:11:00,
2013-07-20 04:16:00,68.7,68.1,30.03,SW,227,0.0,0.0,98,0.00,,CLR,0.00,VWS V14.00,2013-07-20 08:16:00,
2013-07-20 04:21:00,68.1,67.5,30.03,SW,227,0.0,0.0,98,0.00,,CLR,0.00,VWS V14.00,2013-07-20 08:21:00,
2013-07-20 04:26:00,68.3,67.7,30.03,SW,227,0.0,0.0,98,0.00,,CLR,0.00,VWS V14.00,2013-07-20 08:26:00,
2013-07-20 04:31:00,68.1,67.5,30.03,SW,227,0.0,0.0,98,0.00,,CLR,0.00,VWS V14.00,2013-07-20 08:31:00,
2013-07-20 04:36:00,68.1,67.5,30.03,SW,227,0.0,0.0,98,0.00,,CLR,0.00,VWS V14.00,2013-07-20 08:36:00,
2013-07-20 04:41:00,68.1,67.5,30.03,SW,227,0.0,0.0,98,0.00,,CLR,0.00,VWS V14.00,2013-07-20 08:41:00,
2013-07-20 04:46:00,67.9,67.3,30.03,SW,227,0.0,0.0,98,0.00,,CLR,0.00,VWS V14.00,2013-07-20 08:46:00,
2013-07-20 04:52:00,67.9,67.3,30.03,SW,227,0.0,0.0,98,0.00,,CLR,0.00,VWS V14.00,2013-07-20 08:52:00,
2013-07-20 04:57:00,68.1,67.5,30.03,SW,227,0.0,0.0,98,0.00,,CLR,0.00,VWS V14.00,2013-07-20 08:57:00,
2013-07-20 05:02:00,68.1,67.5,30.03,SW,227,0.0,0.0,98,0.00,,CLR,0.00,VWS V14.00,2013-07-20 09:02:00,
2013-07-20 05:07:00,68.1,67.5,30.03,SW,227,0.0,0.0,98,0.00,,CLR,0.00,VWS V14.00,2013-07-20 09:07:00,
2013-07-20 05:12:00,68.1,67.5,30.03,SW,227,0.0,0.0,98,0.00,,CLR,0.00,VWS V14.00,2013-07-20 09:12:00,
2013-07-20 05:17:00,67.9,67.3,30.03,SE,125,3.0,3.8,98,0.00,,CLR,0.00,VWS V14.00,2013-07-20 09:17:00,
2013-07-20 05:22:00,67.9,67.3,30.03,SE,137,3.0,3.8,98,0.00,,CLR,0.00,VWS V14.00,2013-07-20 09:22:00,
2013-07-20 05:27:00,67.9,67.3,30.03,SSE,160,0.0,2.7,98,0.00,,CLR,0.00,VWS V14.00,2013-07-20 09:27:00,
2013-07-20 05:32:00,67.9,67.3,30.03,SSE,160,0.0,0.0,98,0.00,,CLR,0.00,VWS V14.00,2013-07-20 09:32:00,
2013-07-20 05:37:00,67.9,67.3,30.03,SSE,160,0.0,0.0,98,0.00,,CLR,0.00,VWS V14.00,2013-07-20 09:37:00,
2013-07-20 05:42:00,67.7,67.2,30.03,SSE,160,0.0,0.0,98,0.00,,CLR,0.00,VWS V14.00,2013-07-20 09:42:00,
2013-07-20 05:48:00,67.7,67.2,30.03,SSE,160,0.0,0.0,98,0.00,,CLR,0.00,VWS V14.00,2013-07-20 09:48:00,
2013-07-20 05:53:00,67.6,67.0,30.03,SSE,160,0.0,0.0,98,0.00,,CLR,0.00,VWS V14.00,2013-07-20 09:53:00,
2013-07-20 05:58:00,67.7,67.2,30.03,SSE,160,0.0,0.0,98,0.00,,CLR,0.00,VWS V14.00,2013-07-20 09:58:00,
2013-07-20 06:03:00,67.7,67.2,30.03,SSE,160,0.0,0.0,98,0.00,,CLR,0.00,VWS V14.00,2013-07-20 10:03:00,
2013-07-20 06:08:00,67.6,67.0,30.03,SSE,160,0.0,0.0,98,0.00,,CLR,0.00,VWS V14.00,2013-07-20 10:08:00,
2013-07-20 06:13:00,67.6,67.0,30.03,SSE,160,0.0,0.0,98,0.00,,CLR,0.00,VWS V14.00,2013-07-20 10:13:00,
2013-07-20 06:18:00,67.6,67.0,30.06,SSE,160,0.0,0.0,98,0.00,,CLR,0.00,VWS V14.00,2013-07-20 10:18:00,
2013-07-20 06:23:00,67.6,67.0,30.06,SSE,160,0.0,0.0,98,0.00,,CLR,0.00,VWS V14.00,2013-07-20 10:23:00,
2013-07-20 06:28:00,67.4,66.8,30.06,SSE,160,0.0,0.0,98,0.00,,CLR,0.00,VWS V14.00,2013-07-20 10:28:00,
2013-07-20 06:34:00,67.4,66.8,30.06,SSE,160,0.0,0.0,98,0.00,,CLR,0.00,VWS V14.00,2013-07-20 10:34:00,
2013-07-20 06:39:00,67.6,67.0,30.06,SSE,160,0.0,0.0,98,0.00,,CLR,0.00,VWS V14.00,2013-07-20 10:39:00,
2013-07-20 06:44:00,67.2,66.6,30.06,SSE,160,0.0,0.0,98,0.00,,CLR,0.00,VWS V14.00,2013-07-20 10:44:00,
2013-07-20 06:49:00,67.4,66.8,30.06,SSE,160,0.0,0.0,98,0.00,,CLR,0.00,VWS V14.00,2013-07-20 10:49:00,
2013-07-20 06:54:00,67.4,66.8,30.06,SSE,160,0.0,0.0,98,0.00,,CLR,0.00,VWS V14.00,2013-07-20 10:54:00,
2013-07-20 06:59:00,67.4,66.8,30.06,SSE,160,0.0,0.0,98,0.00,,CLR,0.00,VWS V14.00,2013-07-20 10:59:00,
2013-07-20 07:04:00,67.6,67.0,30.06,SSE,160,0.0,0.0,98,0.00,,CLR,0.00,VWS V14.00,2013-07-20 11:04:00,
2013-07-20 07:09:00,67.6,67.0,30.06,SSE,160,0.0,0.0,98,0.00,,CLR,0.00,VWS V14.00,2013-07-20 11:09:00,
2013-07-20 07:14:00,67.6,67.0,30.06,SSE,160,3.0,3.2,98,0.00,,CLR,0.00,VWS V14.00,2013-07-20 11:14:00,
2013-07-20 07:19:00,67.6,67.0,30.06,NNW,334,0.0,0.0,98,0.00,,CLR,0.00,VWS V14.00,2013-07-20 11:19:00,
2013-07-20 07:24:00,67.6,67.0,30.06,NNW,334,0.0,0.0,98,0.00,,CLR,0.00,VWS V14.00,2013-07-20 11:24:00,
2013-07-20 07:30:00,67.7,67.2,30.06,NW,311,0.0,0.0,98,0.00,,CLR,0.00,VWS V14.00,2013-07-20 11:30:00,
2013-07-20 07:35:00,67.9,67.3,30.06,NW,311,0.0,0.0,98,0.00,,CLR,0.00,VWS V14.00,2013-07-20 11:35:00,
2013-07-20 07:40:00,67.9,67.3,30.06,NW,311,0.0,0.0,98,0.00,,CLR,0.00,VWS V14.00,2013-07-20 11:40:00,
2013-07-20 07:45:00,68.1,67.5,30.06,WSW,238,0.0,0.0,98,0.00,,CLR,0.00,VWS V14.00,2013-07-20 11:45:00,
2013-07-20 07:50:00,68.3,67.7,30.06,SSE,167,3.0,3.2,98,0.00,,CLR,0.00,VWS V14.00,2013-07-20 11:50:00,
2013-07-20 07:55:00,68.7,68.1,30.06,SW,232,3.0,4.3,98,0.00,,CLR,0.00,VWS V14.00,2013-07-20 11:55:00,
2013-07-20 08:01:00,68.8,68.3,30.06,West,275,3.4,4.3,98,0.00,,BKN047,0.00,VWS V14.00,2013-07-20 12:01:00,
2013-07-20 08:06:00,69.0,68.5,30.06,WSW,247,0.0,2.7,98,0.00,,BKN047,0.00,VWS V14.00,2013-07-20 12:06:00,
2013-07-20 08:11:00,69.0,68.5,30.06,SW,220,3.0,3.2,98,0.00,,BKN047,0.00,VWS V14.00,2013-07-20 12:11:00,
2013-07-20 08:16:00,69.0,68.5,30.06,South,172,0.0,3.2,98,0.00,,BKN047,0.00,VWS V14.00,2013-07-20 12:16:00,
2013-07-20 08:21:00,69.2,68.6,30.06,SSW,194,0.0,0.0,98,0.00,,BKN047,0.00,VWS V14.00,2013-07-20 12:21:00,
2013-07-20 08:26:00,69.6,69.0,30.06,South,191,3.0,3.2,98,0.00,,BKN047,0.00,VWS V14.00,2013-07-20 12:26:00,
2013-07-20 08:31:00,69.8,69.2,30.06,SSW,205,0.0,4.3,98,0.00,,BKN047,0.00,VWS V14.00,2013-07-20 12:31:00,
2013-07-20 08:36:00,70.0,69.4,30.06,SE,146,3.4,4.3,98,0.00,,BKN047,0.00,VWS V14.00,2013-07-20 12:36:00,
2013-07-20 08:41:00,70.2,69.6,30.06,SSW,194,3.0,3.2,98,0.00,,BKN047,0.00,VWS V14.00,2013-07-20 12:41:00,
2013-07-20 08:46:00,70.5,69.9,30.06,South,178,0.0,2.7,98,0.00,,BKN047,0.00,VWS V14.00,2013-07-20 12:46:00,
2013-07-20 08:51:00,70.9,70.3,30.06,SE,127,3.4,4.8,98,0.00,,BKN047,0.00,VWS V14.00,2013-07-20 12:51:00,
2013-07-20 08:56:00,71.3,70.7,30.06,South,190,3.4,3.8,98,0.00,,BKN047,0.00,VWS V14.00,2013-07-20 12:56:00,
2013-07-20 09:01:00,71.6,71.0,30.06,SSW,207,0.0,0.0,98,0.00,,CLR,0.00,VWS V14.00,2013-07-20 13:01:00,
2013-07-20 09:07:00,72.0,71.4,30.06,SW,225,0.0,0.0,98,0.00,,CLR,0.00,VWS V14.00,2013-07-20 13:07:00,
2013-07-20 09:12:00,72.6,72.0,30.06,SSW,194,6.4,7.0,98,0.00,,CLR,0.00,VWS V14.00,2013-07-20 13:12:00,
2013-07-20 09:17:00,72.8,72.2,30.06,SSE,165,3.0,3.2,98,0.00,,CLR,0.00,VWS V14.00,2013-07-20 13:17:00,
2013-07-20 09:22:00,72.8,72.2,30.06,South,176,3.9,4.3,98,0.00,,CLR,0.00,VWS V14.00,2013-07-20 13:22:00,
2013-07-20 09:27:00,73.1,72.5,30.06,South,179,3.9,4.3,98,0.00,,CLR,0.00,VWS V14.00,2013-07-20 13:27:00,
2013-07-20 09:32:00,73.5,72.9,30.06,SSE,160,4.4,4.8,98,0.00,,CLR,0.00,VWS V14.00,2013-07-20 13:32:00,
2013-07-20 09:37:00,73.7,73.1,30.06,SSE,168,3.9,4.8,98,0.00,,CLR,0.00,VWS V14.00,2013-07-20 13:37:00,
2013-07-20 09:42:00,73.7,72.8,30.06,South,184,6.4,7.0,97,0.00,,CLR,0.00,VWS V14.00,2013-07-20 13:42:00,
2013-07-20 09:47:00,73.9,72.3,30.06,SSW,202,4.4,6.4,95,0.00,,BKN019,0.00,VWS V14.00,2013-07-20 13:47:00,
2013-07-20 09:52:00,74.2,72.4,30.06,SSE,164,4.9,7.0,94,0.00,,BKN019,0.00,VWS V14.00,2013-07-20 13:52:00,
2013-07-20 09:57:00,74.6,72.4,30.06,South,181,5.9,6.4,93,0.00,,BKN019,0.00,VWS V14.00,2013-07-20 13:57:00,
2013-07-20 10:02:00,75.0,71.8,30.06,WNW,283,2.5,4.8,90,0.00,,BKN045,0.00,VWS V14.00,2013-07-20 14:02:00,
2013-07-20 10:08:00,75.5,71.4,30.06,SW,223,3.9,4.8,87,0.00,,BKN045,0.00,VWS V14.00,2013-07-20 14:08:00,
2013-07-20 10:13:00,75.7,71.2,30.06,WSW,256,2.5,4.3,86,0.00,,BKN045,0.00,VWS V14.00,2013-07-20 14:13:00,
2013-07-20 10:18:00,76.1,71.2,30.06,WSW,240,3.9,5.9,85,0.00,,BKN045,0.00,VWS V14.00,2013-07-20 14:18:00,
2013-07-20 10:23:00,76.6,70.4,30.06,WNW,290,3.0,5.9,81,0.00,,BKN045,0.00,VWS V14.00,2013-07-20 14:23:00,
2013-07-20 10:28:00,76.8,70.6,30.06,SSE,153,3.9,5.9,81,0.00,,BKN045,0.00,VWS V14.00,2013-07-20 14:28:00,
2013-07-20 10:33:00,77.6,70.6,30.06,NW,323,5.9,7.0,79,0.00,,BKN045,0.00,VWS V14.00,2013-07-20 14:33:00,
2013-07-20 10:38:00,78.3,71.3,30.06,SW,228,5.4,9.7,79,0.00,,BKN045,0.00,VWS V14.00,2013-07-20 14:38:00,
2013-07-20 10:43:00,78.5,70.3,30.06,SSE,150,4.4,4.8,76,0.00,,BKN045,0.00,VWS V14.00,2013-07-20 14:43:00,
2013-07-20 10:48:00,78.5,68.7,30.06,West,269,8.4,9.1,72,0.00,,BKN045,0.00,VWS V14.00,2013-07-20 14:48:00,
2013-07-20 10:53:00,78.7,67.7,30.06,WSW,246,3.9,6.4,69,0.00,,BKN045,0.00,VWS V14.00,2013-07-20 14:53:00,
2013-07-20 10:58:00,79.2,68.6,30.06,WNW,295,3.0,5.9,70,0.00,,BKN045,0.00,VWS V14.00,2013-07-20 14:58:00,
2013-07-20 11:03:00,78.9,67.4,30.06,WNW,297,6.9,9.7,68,0.00,,BKN027,0.00,VWS V14.00,2013-07-20 15:03:00,
2013-07-20 11:08:00,79.2,67.8,30.06,WSW,249,11.1,12.6,68,0.00,,BKN027,0.00,VWS V14.00,2013-07-20 15:08:00,
2013-07-20 11:14:00,79.4,67.9,30.06,SSW,205,3.4,4.8,68,0.00,,BKN027,0.00,VWS V14.00,2013-07-20 15:14:00,
2013-07-20 11:19:00,79.6,68.1,30.06,WSW,255,4.4,9.7,68,0.00,,BKN027,0.00,VWS V14.00,2013-07-20 15:19:00,
2013-07-20 11:24:00,80.2,67.8,30.06,WNW,301,4.4,9.7,66,0.00,,BKN027,0.00,VWS V14.00,2013-07-20 15:24:00,
2013-07-20 11:29:00,80.0,67.6,30.06,West,275,5.4,7.5,66,0.00,,BKN027,0.00,VWS V14.00,2013-07-20 15:29:00,
2013-07-20 11:34:00,80.5,68.1,30.06,WNW,296,8.9,9.7,66,0.00,,BKN070,0.00,VWS V14.00,2013-07-20 15:34:00,
2013-07-20 11:39:00,80.9,68.1,30.06,NNW,334,6.4,7.5,65,0.00,,BKN070,0.00,VWS V14.00,2013-07-20 15:39:00,
2013-07-20 11:44:00,81.1,68.7,30.06,West,270,6.4,8.6,66,0.00,,BKN070,0.00,VWS V14.00,2013-07-20 15:44:00,
2013-07-20 11:49:00,80.5,66.8,30.06,WNW,291,6.4,7.0,63,0.00,,BKN070,0.00,VWS V14.00,2013-07-20 15:49:00,
2013-07-20 11:54:00,80.3,67.1,30.06,West,263,5.9,7.5,64,0.00,,BKN070,0.00,VWS V14.00,2013-07-20 15:54:00,
2013-07-20 11:59:00,80.7,67.4,30.06,WNW,294,5.9,9.1,64,0.00,,BKN070,0.00,VWS V14.00,2013-07-20 15:59:00,
2013-07-20 12:04:00,81.5,67.7,30.06,West,276,5.9,7.5,63,0.00,,BKN049,0.00,VWS V14.00,2013-07-20 16:04:00,
2013-07-20 12:09:00,80.9,66.2,30.06,WSW,255,3.4,3.8,61,0.00,,BKN049,0.00,VWS V14.00,2013-07-20 16:09:00,
2013-07-20 12:14:00,81.8,68.0,30.06,WNW,282,6.9,7.5,63,0.00,,BKN049,0.00,VWS V14.00,2013-07-20 16:14:00,
2013-07-20 12:19:00,82.4,68.1,30.03,NNW,338,3.4,4.8,62,0.00,,OVC032,0.00,VWS V14.00,2013-07-20 16:19:00,
2013-07-20 12:25:00,82.9,67.2,30.03,WNW,289,3.0,9.1,59,0.00,,OVC032,0.00,VWS V14.00,2013-07-20 16:25:00,
2013-07-20 12:30:00,83.3,67.5,30.03,SE,143,3.9,4.3,59,0.00,,OVC032,0.00,VWS V14.00,2013-07-20 16:30:00,
2013-07-20 12:35:00,82.9,65.1,30.03,WNW,284,3.0,9.1,55,0.00,,OVC032,0.00,VWS V14.00,2013-07-20 16:35:00,
2013-07-20 12:40:00,83.1,66.8,30.03,West,265,5.4,7.5,58,0.00,,OVC032,0.00,VWS V14.00,2013-07-20 16:40:00,
2013-07-20 12:45:00,82.9,66.7,30.03,NW,314,6.4,9.1,58,0.00,,-RA,0.00,VWS V14.00,2013-07-20 16:45:00,
2013-07-20 12:50:00,83.3,66.5,30.03,WNW,287,8.9,9.7,57,0.00,,-RA,0.00,VWS V14.00,2013-07-20 16:50:00,
2013-07-20 12:55:00,82.4,64.6,30.03,NW,315,9.1,9.9,55,0.00,,-RA,0.00,VWS V14.00,2013-07-20 16:55:00,
2013-07-20 13:00:00,82.4,64.6,30.03,WNW,298,3.9,9.1,55,0.00,,-RA,0.00,VWS V14.00,2013-07-20 17:00:00,
2013-07-20 13:05:00,81.8,64.1,30.03,NW,304,9.1,9.9,55,0.00,,-RA,0.00,VWS V14.00,2013-07-20 17:05:00,
2013-07-20 13:11:00,82.0,65.8,30.03,WNW,300,9.1,9.9,58,0.00,,-RA,0.00,VWS V14.00,2013-07-20 17:11:00,
2013-07-20 13:16:00,82.9,66.7,30.03,WNW,285,4.9,5.4,58,0.00,,-RA,0.00,VWS V14.00,2013-07-20 17:16:00,
2013-07-20 13:21:00,83.5,65.7,30.03,WSW,249,3.4,5.9,55,0.00,,-RA,0.00,VWS V14.00,2013-07-20 17:21:00,
2013-07-20 13:26:00,83.7,65.3,30.03,SSE,160,5.4,9.7,54,0.00,,-RA,0.00,VWS V14.00,2013-07-20 17:26:00,
2013-07-20 13:31:00,82.9,65.7,30.03,SW,214,4.4,7.0,56,0.00,,-RA,0.00,VWS V14.00,2013-07-20 17:31:00,
2013-07-20 13:36:00,82.8,65.0,30.03,West,275,4.4,4.8,55,0.00,,-RA,0.00,VWS V14.00,2013-07-20 17:36:00,
2013-07-20 13:41:00,82.6,65.3,30.03,SSW,211,3.0,5.9,56,0.00,,-RA,0.00,VWS V14.00,2013-07-20 17:41:00,
2013-07-20 13:46:00,82.0,65.3,30.03,WSW,243,3.9,7.0,57,0.00,,-RA,0.00,VWS V14.00,2013-07-20 17:46:00,
2013-07-20 13:52:00,82.0,65.3,30.03,WNW,294,3.4,7.0,57,0.00,,-RA,0.00,VWS V14.00,2013-07-20 17:52:00,
2013-07-20 13:57:00,81.3,64.1,30.03,West,277,6.9,7.5,56,0.00,,-RA,0.00,VWS V14.00,2013-07-20 17:57:00,
2013-07-20 14:02:00,81.8,65.6,30.03,SW,226,3.0,4.3,58,0.00,,BKN055,0.00,VWS V14.00,2013-07-20 18:02:00,
2013-07-20 14:07:00,83.1,66.8,30.03,WSW,246,3.0,6.4,58,0.00,,BKN055,0.00,VWS V14.00,2013-07-20 18:07:00,
2013-07-20 14:12:00,83.9,67.5,30.03,South,179,5.4,9.9,58,0.00,,BKN055,0.00,VWS V14.00,2013-07-20 18:12:00,
2013-07-20 14:17:00,84.1,68.2,30.03,SSE,160,6.9,7.5,59,0.00,,BKN055,0.00,VWS V14.00,2013-07-20 18:17:00,
2013-07-20 14:22:00,85.0,67.6,30.03,WNW,302,3.9,4.3,56,0.00,,BKN055,0.00,VWS V14.00,2013-07-20 18:22:00,
2013-07-20 14:27:00,85.5,65.9,30.03,WSW,249,5.9,9.9,52,0.00,,BKN055,0.00,VWS V14.00,2013-07-20 18:27:00,
2013-07-20 14:32:00,86.3,66.6,30.03,West,265,5.9,7.0,52,0.00,,BKN055,0.00,VWS V14.00,2013-07-20 18:32:00,
2013-07-20 14:37:00,85.9,62.8,30.03,West,273,5.4,7.5,46,0.00,,BKN055,0.00,VWS V14.00,2013-07-20 18:37:00,
2013-07-20 14:42:00,86.1,66.4,30.03,WSW,243,3.0,6.4,52,0.00,,BKN055,0.00,VWS V14.00,2013-07-20 18:42:00,
2013-07-20 14:47:00,86.1,69.6,30.00,SSE,166,6.4,8.1,58,0.00,,BKN055,0.00,VWS V14.00,2013-07-20 18:47:00,
2013-07-20 14:52:00,85.5,68.1,30.00,SSE,167,6.9,7.5,56,0.00,,BKN055,0.00,VWS V14.00,2013-07-20 18:52:00,
2013-07-20 14:57:00,85.2,68.2,30.00,South,179,6.4,9.9,57,0.00,,BKN055,0.00,VWS V14.00,2013-07-20 18:57:00,
2013-07-20 15:02:00,84.8,68.9,30.00,SE,146,8.4,9.1,59,0.00,,SCT038,0.00,VWS V14.00,2013-07-20 19:02:00,
2013-07-20 15:08:00,85.2,67.7,30.00,SSE,152,8.4,9.1,56,0.00,,SCT038,0.00,VWS V14.00,2013-07-20 19:08:00,
2013-07-20 15:13:00,85.9,69.9,30.00,South,172,8.4,9.1,59,0.00,,SCT038,0.00,VWS V14.00,2013-07-20 19:13:00,
2013-07-20 15:18:00,86.5,69.4,30.00,South,177,3.0,6.4,57,0.00,,SCT038,0.00,VWS V14.00,2013-07-20 19:18:00,
2013-07-20 15:23:00,86.7,69.1,30.00,SSE,164,6.9,7.5,56,0.00,,SCT038,0.00,VWS V14.00,2013-07-20 19:23:00,
2013-07-20 15:28:00,86.3,66.0,30.00,SW,216,4.4,7.0,51,0.00,,SCT038,0.00,VWS V14.00,2013-07-20 19:28:00,
2013-07-20 15:33:00,86.8,68.2,30.00,SW,220,6.9,8.6,54,0.00,,SCT038,0.00,VWS V14.00,2013-07-20 19:33:00,
2013-07-20 15:39:00,86.7,66.9,30.00,SSE,157,11.1,12.1,52,0.00,,SCT038,0.00,VWS V14.00,2013-07-20 19:39:00,
2013-07-20 15:44:00,87.2,67.5,30.00,West,271,3.4,4.8,52,0.00,,SCT038,0.00,VWS V14.00,2013-07-20 19:44:00,
2013-07-20 15:49:00,87.0,68.4,30.00,SSE,149,6.4,7.5,54,0.00,,SCT038,0.00,VWS V14.00,2013-07-20 19:49:00,
2013-07-20 15:54:00,86.7,66.4,30.00,SSW,210,6.4,7.0,51,0.00,,SCT038,0.00,VWS V14.00,2013-07-20 19:54:00,
2013-07-20 15:59:00,86.7,66.4,30.00,SSE,154,3.9,7.0,51,0.00,,SCT038,0.00,VWS V14.00,2013-07-20 19:59:00,
2013-07-20 16:04:00,86.8,68.2,29.97,West,280,3.9,7.0,54,0.00,,SCT095,0.00,VWS V14.00,2013-07-20 20:04:00,
2013-07-20 16:10:00,87.2,68.6,29.97,SSW,192,3.9,5.9,54,0.00,,SCT095,0.00,VWS V14.00,2013-07-20 20:10:00,
2013-07-20 16:15:00,86.7,66.9,29.97,SSW,195,3.9,4.3,52,0.00,,SCT095,0.00,VWS V14.00,2013-07-20 20:15:00,
2013-07-20 16:20:00,86.7,66.9,29.97,SSW,211,4.4,4.8,52,0.00,,SCT095,0.00,VWS V14.00,2013-07-20 20:20:00,
2013-07-20 16:26:00,86.5,66.2,29.97,West,280,5.4,5.9,51,0.00,,SCT095,0.00,VWS V14.00,2013-07-20 20:26:00,
2013-07-20 16:31:00,86.5,65.1,30.00,West,261,4.4,4.8,49,0.00,,SCT095,0.00,VWS V14.00,2013-07-20 20:31:00,
2013-07-20 16:36:00,86.8,67.1,30.00,SE,135,6.4,7.0,52,0.00,,SCT095,0.00,VWS V14.00,2013-07-20 20:36:00,
2013-07-20 16:41:00,85.9,67.3,30.00,SSW,199,6.4,7.0,54,0.00,,SCT095,0.00,VWS V14.00,2013-07-20 20:41:00,
2013-07-20 16:46:00,85.0,67.0,29.97,SSE,152,4.4,8.6,55,0.00,,SCT095,0.00,VWS V14.00,2013-07-20 20:46:00,
2013-07-20 16:51:00,84.6,67.2,29.97,SSE,155,5.9,7.5,56,0.00,,SCT095,0.00,VWS V14.00,2013-07-20 20:51:00,
2013-07-20 16:56:00,85.2,68.2,29.97,South,189,8.4,9.9,57,0.00,,SCT095,0.00,VWS V14.00,2013-07-20 20:56:00,
2013-07-20 17:01:00,85.4,68.4,29.97,South,186,6.9,7.5,57,0.00,,BKN075,0.00,VWS V14.00,2013-07-20 21:01:00,
2013-07-20 17:06:00,85.7,68.2,29.97,South,188,3.0,6.4,56,0.00,,BKN075,0.00,VWS V14.00,2013-07-20 21:06:00,
2013-07-20 17:11:00,85.9,67.9,29.97,SE,146,3.0,4.3,55,0.00,,BKN075,0.00,VWS V14.00,2013-07-20 21:11:00,
2013-07-20 17:16:00,85.9,68.4,29.97,SSE,153,5.9,7.5,56,0.00,,BKN075,0.00,VWS V14.00,2013-07-20 21:16:00,
2013-07-20 17:21:00,85.5,67.5,29.97,SE,137,5.4,7.5,55,0.00,,BKN075,0.00,VWS V14.00,2013-07-20 21:21:00,
2013-07-20 17:26:00,85.7,68.2,29.97,SW,227,5.4,5.9,56,0.00,,BKN075,0.00,VWS V14.00,2013-07-20 21:26:00,
2013-07-20 17:32:00,85.4,67.4,29.97,South,188,5.4,10.5,55,0.00,,BKN075,0.00,VWS V14.00,2013-07-20 21:32:00,
2013-07-20 17:37:00,85.4,66.8,29.97,South,170,3.9,7.0,54,0.00,,BKN075,0.00,VWS V14.00,2013-07-20 21:37:00,
2013-07-20 17:42:00,85.7,67.7,29.97,South,173,5.9,6.4,55,0.00,,BKN075,0.00,VWS V14.00,2013-07-20 21:42:00,
2013-07-20 17:47:00,85.2,66.7,29.97,SSE,150,6.9,9.7,54,0.00,,BKN075,0.00,VWS V14.00,2013-07-20 21:47:00,
2013-07-20 17:53:00,85.0,67.6,29.97,SSW,203,4.4,7.0,56,0.00,,BKN075,0.00,VWS V14.00,2013-07-20 21:53:00,
2013-07-20 17:58:00,85.2,68.7,29.97,SW,225,6.4,7.0,58,0.00,,BKN075,0.00,VWS V14.00,2013-07-20 21:58:00,
2013-07-20 18:03:00,85.2,69.2,29.97,ESE,123,3.9,7.5,59,0.00,,BKN040,0.00,VWS V14.00,2013-07-20 22:03:00,
2013-07-20 18:08:00,84.2,68.4,29.97,SSE,149,5.9,6.4,59,0.00,,BKN040,0.00,VWS V14.00,2013-07-20 22:08:00,
2013-07-20 18:13:00,84.1,69.2,29.97,SE,145,3.4,4.3,61,0.00,,BKN040,0.00,VWS V14.00,2013-07-20 22:13:00,
2013-07-20 18:18:00,83.9,69.0,29.97,West,269,3.4,3.8,61,0.00,,BKN040,0.00,VWS V14.00,2013-07-20 22:18:00,
2013-07-20 18:23:00,84.1,66.7,29.97,NW,321,5.9,9.1,56,0.00,,BKN040,0.00,VWS V14.00,2013-07-20 22:23:00,
2013-07-20 18:29:00,83.7,65.3,29.97,NW,317,6.4,7.5,54,0.00,,BKN040,0.00,VWS V14.00,2013-07-20 22:29:00,
2013-07-20 18:34:00,82.9,64.6,29.97,NNW,338,6.9,9.9,54,0.00,,BKN040,0.00,VWS V14.00,2013-07-20 22:34:00,
2013-07-20 18:39:00,82.6,65.3,29.97,NW,307,5.4,5.9,56,0.00,,BKN040,0.00,VWS V14.00,2013-07-20 22:39:00,
2013-07-20 18:44:00,82.9,66.7,29.97,NW,310,6.4,7.0,58,0.00,,BKN040,0.00,VWS V14.00,2013-07-20 22:44:00,
2013-07-20 18:49:00,82.6,66.8,29.97,NNW,332,5.9,7.0,59,0.00,,BKN040,0.00,VWS V14.00,2013-07-20 22:49:00,
2013-07-20 18:55:00,81.5,66.2,29.97,NNW,327,8.9,9.7,60,0.00,,BKN040,0.00,VWS V14.00,2013-07-20 22:55:00,
2013-07-20 19:00:00,80.5,64.9,29.97,NW,315,9.1,13.2,59,0.00,,BKN040,0.00,VWS V14.00,2013-07-20 23:00:00,
2013-07-20 19:05:00,79.6,65.0,30.00,NNW,337,5.9,18.0,61,0.00,,BKN070,0.00,VWS V14.00,2013-07-20 23:05:00,
2013-07-20 19:10:00,79.1,63.0,30.00,NNW,333,12.1,13.2,58,0.00,,BKN070,0.00,VWS V14.00,2013-07-20 23:10:00,
2013-07-20 19:15:00,78.5,63.9,30.00,NNW,339,4.4,9.9,61,0.00,,BKN070,0.00,VWS V14.00,2013-07-20 23:15:00,
2013-07-20 19:20:00,78.3,63.8,30.00,NW,311,6.4,7.0,61,0.00,,BKN070,0.00,VWS V14.00,2013-07-20 23:20:00,
2013-07-20 19:25:00,77.9,63.9,30.00,NW,309,5.4,5.9,62,0.00,,BKN070,0.00,VWS V14.00,2013-07-20 23:25:00,
2013-07-20 19:31:00,77.6,64.4,30.00,NNW,329,5.9,8.1,64,0.00,,BKN070,0.00,VWS V14.00,2013-07-20 23:31:00,
2013-07-20 19:36:00,77.6,64.4,30.00,NNW,344,0.0,2.7,64,0.00,,BKN070,0.00,VWS V14.00,2013-07-20 23:36:00,
2013-07-20 19:41:00,77.8,64.6,30.00,NNW,344,0.0,0.0,64,0.00,,BKN070,0.00,VWS V14.00,2013-07-20 23:41:00,
2013-07-20 19:46:00,77.4,64.7,30.00,North,349,3.4,3.8,65,0.00,,BKN070,0.00,VWS V14.00,2013-07-20 23:46:00,
2013-07-20 19:51:00,77.4,65.2,30.00,SE,139,3.4,4.3,66,0.00,,BKN070,0.00,VWS V14.00,2013-07-20 23:51:00,
2013-07-20 19:56:00,77.2,65.0,30.00,SSE,147,0.0,0.0,66,0.00,,BKN070,0.00,VWS V14.00,2013-07-20 23:56:00,
2013-07-20 20:02:00,77.2,64.5,30.00,SSE,147,0.0,0.0,65,0.00,,-RA,0.00,VWS V14.00,2013-07-21 00:02:00,
2013-07-20 20:07:00,76.6,64.0,30.00,SSE,147,0.0,3.2,65,0.00,,-RA,0.00,VWS V14.00,2013-07-21 00:07:00,
2013-07-20 20:12:00,76.6,64.0,30.00,SSE,147,2.5,2.7,65,0.00,,-RA,0.00,VWS V14.00,2013-07-21 00:12:00,
2013-07-20 20:17:00,76.6,64.0,30.00,SSE,147,2.5,2.7,65,0.00,,-RA,0.00,VWS V14.00,2013-07-21 00:17:00,
2013-07-20 20:22:00,76.6,64.4,30.00,SSE,147,0.0,0.0,66,0.00,,-RA,0.00,VWS V14.00,2013-07-21 00:22:00,
2013-07-20 20:27:00,76.5,64.3,30.00,SSE,147,0.0,0.0,66,0.00,,-RA,0.00,VWS V14.00,2013-07-21 00:27:00,
2013-07-20 20:33:00,76.3,64.1,30.03,SSE,147,2.5,2.7,66,0.00,,-RA,0.00,VWS V14.00,2013-07-21 00:33:00,
2013-07-20 20:38:00,76.1,64.3,30.03,SSE,147,0.0,0.0,67,0.00,,-RA,0.00,VWS V14.00,2013-07-21 00:38:00,
2013-07-20 20:43:00,76.3,64.5,30.03,SSE,147,0.0,0.0,67,0.00,,-RA,0.00,VWS V14.00,2013-07-21 00:43:00,
2013-07-20 20:48:00,75.9,63.7,30.00,SSE,147,0.0,0.0,66,0.00,,-RA,0.00,VWS V14.00,2013-07-21 00:48:00,
2013-07-20 20:53:00,75.9,64.6,30.00,SSE,147,0.0,0.0,68,0.00,,-RA,0.00,VWS V14.00,2013-07-21 00:53:00,
2013-07-20 20:58:00,75.9,64.6,30.00,SSE,147,0.0,0.0,68,0.00,,-RA,0.00,VWS V14.00,2013-07-21 00:58:00,
2013-07-20 21:03:00,75.7,64.8,30.00,SSE,147,0.0,0.0,69,0.00,,CLR,0.00,VWS V14.00,2013-07-21 01:03:00,
2013-07-20 21:08:00,74.8,65.2,30.00,WSW,245,2.5,2.7,72,0.00,,CLR,0.00,VWS V14.00,2013-07-21 01:08:00,
2013-07-20 21:13:00,74.6,65.8,30.00,WSW,245,0.0,0.0,74,0.00,,CLR,0.00,VWS V14.00,2013-07-21 01:13:00,
2013-07-20 21:18:00,74.8,66.7,30.03,SE,138,3.4,4.3,76,0.00,,CLR,0.00,VWS V14.00,2013-07-21 01:18:00,
2013-07-20 21:24:00,74.6,66.2,30.03,ESE,122,3.9,4.3,75,0.00,,CLR,0.00,VWS V14.00,2013-07-21 01:24:00,
2013-07-20 21:29:00,74.2,66.2,30.03,SE,125,0.0,0.0,76,0.00,,CLR,0.00,VWS V14.00,2013-07-21 01:29:00,
2013-07-20 21:34:00,73.7,66.4,30.03,SE,125,2.5,2.7,78,0.00,,CLR,0.00,VWS V14.00,2013-07-21 01:34:00,
2013-07-20 21:39:00,73.1,66.6,30.03,NW,321,3.0,4.3,80,0.00,,CLR,0.00,VWS V14.00,2013-07-21 01:39:00,
2013-07-20 21:45:00,73.1,66.6,30.03,NNW,331,0.0,0.0,80,0.00,,CLR,0.00,VWS V14.00,2013-07-21 01:45:00,
2013-07-20 21:50:00,72.9,66.4,30.03,NNW,331,0.0,0.0,80,0.00,,CLR,0.00,VWS V14.00,2013-07-21 01:50:00,
2013-07-20 21:55:00,73.1,66.6,30.03,NW,309,3.0,3.2,80,0.00,,CLR,0.00,VWS V14.00,2013-07-21 01:55:00,
2013-07-20 22:00:00,72.8,66.2,30.03,NW,317,0.0,0.0,80,0.00,,CLR,0.00,VWS V14.00,2013-07-21 02:00:00,
2013-07-20 22:05:00,72.6,66.4,30.03,NNW,329,0.0,0.0,81,0.00,,CLR,0.00,VWS V14.00,2013-07-21 02:05:00,
2013-07-20 22:10:00,72.8,66.2,30.03,SSW,207,0.0,0.0,80,0.00,,CLR,0.00,VWS V14.00,2013-07-21 02:10:00,
2013-07-20 22:16:00,72.9,66.8,30.03,SSW,207,0.0,0.0,81,0.00,,CLR,0.00,VWS V14.00,2013-07-21 02:16:00,
2013-07-20 22:21:00,72.9,66.8,30.03,SE,143,0.0,2.7,81,0.00,,CLR,0.00,VWS V14.00,2013-07-21 02:21:00,
2013-07-20 22:26:00,72.8,66.6,30.03,SSE,158,0.0,0.0,81,0.00,,CLR,0.00,VWS V14.00,2013-07-21 02:26:00,
2013-07-20 22:31:00,72.6,66.8,30.03,SSE,158,0.0,0.0,82,0.00,,CLR,0.00,VWS V14.00,2013-07-21 02:31:00,
2013-07-20 22:36:00,72.4,66.9,30.03,SSE,158,0.0,0.0,83,0.00,,CLR,0.00,VWS V14.00,2013-07-21 02:36:00,
2013-07-20 22:41:00,72.4,66.9,30.03,ESE,120,0.0,3.2,83,0.00,,CLR,0.00,VWS V14.00,2013-07-21 02:41:00,
2013-07-20 22:47:00,72.4,67.3,30.00,SE,139,3.0,4.3,84,0.00,,CLR,0.00,VWS V14.00,2013-07-21 02:47:00,
2013-07-20 22:52:00,72.4,67.3,30.00,SW,236,0.0,0.0,84,0.00,,CLR,0.00,VWS V14.00,2013-07-21 02:52:00,
2013-07-20 22:57:00,72.2,67.4,30.00,South,189,0.0,0.0,85,0.00,,CLR,0.00,VWS V14.00,2013-07-21 02:57:00,
2013-07-20 23:02:00,72.2,67.8,30.00,SE,140,2.5,3.8,86,0.00,,CLR,0.00,VWS V14.00,2013-07-21 03:02:00,
2013-07-20 23:07:00,71.3,66.9,30.00,SSE,156,0.0,0.0,86,0.00,,CLR,0.00,VWS V14.00,2013-07-21 03:07:00,
2013-07-20 23:13:00,70.7,67.0,30.00,NW,318,3.4,3.8,88,0.00,,CLR,0.00,VWS V14.00,2013-07-21 03:13:00,
2013-07-20 23:19:00,70.3,66.9,30.03,NW,326,0.0,0.0,89,0.00,,CLR,0.00,VWS V14.00,2013-07-21 03:19:00,
2013-07-20 23:24:00,70.7,67.3,30.03,NW,326,0.0,0.0,89,0.00,,CLR,0.00,VWS V14.00,2013-07-21 03:24:00,
2013-07-20 23:29:00,70.9,67.5,30.03,SW,219,0.0,3.2,89,0.00,,CLR,0.00,VWS V14.00,2013-07-21 03:29:00,
2013-07-20 23:34:00,70.7,68.0,30.03,SW,219,0.0,0.0,91,0.00,,CLR,0.00,VWS V14.00,2013-07-21 03:34:00,
2013-07-20 23:39:00,70.7,68.0,30.03,SW,219,0.0,0.0,91,0.00,,CLR,0.00,VWS V14.00,2013-07-21 03:39:00,
2013-07-20 23:44:00,70.9,67.8,30.03,SW,219,0.0,0.0,90,0.00,,CLR,0.00,VWS V14.00,2013-07-21 03:44:00,
2013-07-20 23:50:00,70.7,67.6,30.03,SW,219,0.0,0.0,90,0.00,,CLR,0.00,VWS V14.00,2013-07-21 03:50:00,
2013-07-20 23:55:00,70.7,67.6,30.03,SW,219,0.0,0.0,90,0.00,,CLR,0.00,VWS V14.00,2013-07-21 03:55:00,